Air Resources Laboratory banner image
Air Resources Laboratory web site National Oceanic and Atmospheric Administration (NOAA)

wy roundup


Office: CYS

ASUS45 KCYS 160810
RWRWY

WYOMING REGIONAL WEATHER ROUNDUP
NATIONAL WEATHER SERVICE CHEYENNE WY
100 AM MST SAT DEC 16 2017

NOTE:  "FAIR" INDICATES FEW OR NO CLOUDS BELOW 12,000 FEET
WITH NO SIGNIFICANT WEATHER AND/OR OBSTRUCTIONS TO VISIBILITY.

WYZ001-160900-
YELLOWSTONE NATIONAL PARK

CITY           SKY/WX    TMP DP  RH WIND       PRES   REMARKS
LK YELLOWSTONE   N/A     19  17  92 CALM      29.88F
W YELLOWSTONE  NOT AVBL

$$
WYZ002>013-054>058-071-098>099-160900-
NORTHERN WYOMING

CITY           SKY/WX    TMP DP  RH WIND       PRES   REMARKS
JACKSON        CLOUDY    23  18  81 N9        29.87F WCI  13
CODY           MOCLDY    39  18  42 N14G20    29.84R WCI  31
GREYBULL       FAIR      28  18  66 CALM      29.78S
WORLAND        FAIR      27  22  81 CALM      29.78S
SHERIDAN       FAIR      38  23  55 NW12      29.83R WCI  30
BUFFALO        FAIR      41  16  36 N21       29.79S
GILLETTE       FAIR      36  19  50 NW10      29.77R WCI  28
HULETT         FAIR      37  19  48 W5        29.78R WCI  34
NEWCASTLE      FAIR      28  19  69 N8        29.75R WCI  20

$$
WYZ014>020-022>026-101>103-160900-
CENTRAL WYOMING

CITY           SKY/WX    TMP DP  RH WIND       PRES   REMARKS
BIG PINEY      FAIR      18   9  68 E5        29.89F WCI  11
PINEDALE       PTSUNNY   21  16  79 CALM      29.89F
DUBOIS         CLOUDY    32   9  37 NW12      29.81F WCI  23
LANDER         FAIR      32  16  51 W5        29.76S WCI  27
RIVERTON       FAIR      25  18  74 N7        29.78R WCI  17
CASPER         FAIR      39  13  34 SW16      29.77F WCI  30
DOUGLAS        FAIR      35  15  44 E5        29.74R WCI  31

$$
WYZ021-027>030-104>119-160900-
SOUTHERN WYOMING

CITY           SKY/WX    TMP DP  RH WIND       PRES   REMARKS
EVANSTON       CLOUDY    33   8  35 W8        29.90F WCI  26
FORT BRIDGER   CLOUDY    35   5  28 NW5       29.91F WCI  31
ROCK SPRINGS   FAIR      31   5  33 CALM      29.89F
DIXON          FAIR      15   7  69 CALM      29.97F
RAWLINS        FAIR      32  10  40 SW6       29.86F WCI  26
SARATOGA       FAIR      27  10  50 SE14      29.89S WCI  15
LARAMIE        FAIR      32  10  40 S15       29.84F WCI  22
CHEYENNE       FAIR      45   3  17 W25G35    29.75F
TORRINGTON     FAIR      49   6  17 NW15      29.72F
PINE BLUFFS    FAIR      36   9  32 MISG      29.77F

$$